This is the latest recevied weather packets stored in our database for station/object K2ATL. If no packets are shown the sender has not sent any weather packets the latest 10 day(s).
| Time | Temp. | Humidity | Pressure | Rain* | Wind** | Luminosity | Snow |
|---|---|---|---|---|---|---|---|
| 1787535416 | 22.78° C | 63% | 1102.7 hPa | 0 mm | - | 0 W/m² | - |
| 1787535111 | 22.78° C | 65% | 1102.8 hPa | 0 mm | - | 0 W/m² | - |
| 1787534810 | 22.78° C | 64% | 1102.8 hPa | 0 mm | - | 0 W/m² | - |
| 1787534510 | 22.78° C | 64% | 1102.6 hPa | 0 mm | - | 0 W/m² | - |
| 1787534208 | 22.78° C | 64% | 1102.7 hPa | 0 mm | - | 0 W/m² | - |
| 1787533905 | 22.78° C | 63% | 1102.6 hPa | 0 mm | - | 0 W/m² | - |
| 1787533601 | 22.78° C | 63% | 1102.5 hPa | 0 mm | - | 0 W/m² | - |
| 1787533297 | 23.33° C | 65% | 1102.4 hPa | 0 mm | - | 0 W/m² | - |
| 1787532992 | 23.33° C | 65% | 1102.4 hPa | 0 mm | - | 0 W/m² | - |
| 1787532687 | 23.33° C | 64% | 1102.3 hPa | 0 mm | - | 0 W/m² | - |
| 1787532383 | 23.33° C | 63% | 1102.2 hPa | 0 mm | - | 0 W/m² | - |
| 1787532078 | 23.89° C | 63% | 1102.3 hPa | 0 mm | - | 0 W/m² | - |
| 1787531774 | 23.89° C | 62% | 1102.2 hPa | 0 mm | - | 0 W/m² | - |
| 1787531470 | 23.89° C | 62% | 1102.1 hPa | 0 mm | - | 0 W/m² | - |
| 1787531166 | 23.89° C | 62% | 1102.2 hPa | 0 mm | - | 0 W/m² | - |
| 1787530861 | 24.44° C | 62% | 1102.1 hPa | 0 mm | - | 1 W/m² | - |
| 1787530556 | 24.44° C | 61% | 1102.1 hPa | 0 mm | - | 2 W/m² | - |
| 1787530256 | 25° C | 61% | 1102.1 hPa | 0 mm | - | 3 W/m² | - |
| 1787529952 | 25° C | 60% | 1101.8 hPa | 0 mm | - | 6 W/m² | - |
| 1787529647 | 25° C | 59% | 1102 hPa | 0 mm | - | 8 W/m² | - |
| 1787529342 | 25.56° C | 59% | 1102.1 hPa | 0 mm | - | 10 W/m² | - |
| 1787529037 | 26.11° C | 57% | 1102 hPa | 0 mm | - | 14 W/m² | - |
| 1787528734 | 26.67° C | 57% | 1101.9 hPa | 0 mm | - | 17 W/m² | - |
| 1787528433 | 26.67° C | 58% | 1102 hPa | 0 mm | - | 20 W/m² | - |
| 1787528130 | 26.67° C | 57% | 1102 hPa | 0 mm | - | 34 W/m² | - |
* Rain latest hour (hover to see other rain measurements)
** Current wind speed in m/s (hover to see current wind gust speed)